Wind_Speed
19 18 16 16 17 15 14 13 15 16 17 16 16 17 17 18 18 18 18 17 16 16 16 16 15 14 14 14 14 15 15 15 15 16 17 18 18 19 19 20 21 23
18 17 16 16 16 14 12 13 15 16 17 17 17 17 18 18 18 18 18 17 17 17 17 16 15 14 14 14 15 15 15 16 16 17 18 18 19 19 20 21 22 24
17 16 15 15 15 14 12 13 15 17 17 17 17 17 17 17 18 18 18 18 17 17 17 16 15 15 15 15 15 15 16 17 17 18 19 19 19 20 21 22 23 25
17 16 15 15 15 14 13 13 15 17 17 17 16 17 17 17 18 18 18 18 18 17 17 17 16 15 15 15 16 16 17 17 18 19 20 20 20 21 22 24 25 26
16 15 15 15 15 14 13 13 15 17 17 17 17 17 17 18 18 18 18 18 18 18 18 17 16 15 15 16 16 17 18 19 20 21 21 20 21 22 24 25 26 28
16 15 15 15 15 13 13 13 15 17 17 17 18 17 17 18 19 18 18 18 18 18 17 16 16 16 16 16 17 18 19 20 21 21 21 21 23 24 25 27 28 29
15 15 14 15 14 13 13 14 16 17 17 18 18 18 18 19 19 18 17 17 17 17 17 16 16 16 16 17 18 19 20 21 22 22 22 23 24 25 27 28 29 30
15 14 14 15 14 12 13 15 16 16 17 18 18 18 19 20 19 18 17 17 17 17 17 17 17 17 17 18 19 20 21 22 23 23 23 24 25 27 28 29 30 32
15 15 15 15 14 13 13 16 17 17 18 18 18 18 19 20 19 18 17 17 17 17 17 17 18 18 19 19 20 21 22 23 23 23 24 25 27 28 29 30 31 33
16 16 16 16 15 14 15 17 18 18 18 18 18 18 19 20 19 18 18 17 17 17 18 18 19 19 20 20 21 22 23 23 24 24 25 26 28 29 30 32 33 34
17 17 17 17 16 15 16 18 19 19 19 19 19 18 19 20 20 19 19 18 18 18 19 19 20 20 21 22 22 23 24 24 24 25 26 28 29 30 31 33 34 36
19 18 18 18 16 16 18 20 20 20 19 20 20 19 19 20 20 19 19 18 19 19 20 20 21 21 22 23 24 24 25 25 25 26 27 29 30 31 32 34 36 36
19 19 19 18 17 17 19 20 20 19 19 20 20 20 20 20 20 19 19 19 20 20 21 22 22 23 23 24 25 25 26 26 27 28 29 30 31 32 34 35 36 37
20 19 19 18 17 18 20 20 20 19 20 21 21 21 21 21 19 19 19 19 20 21 22 23 23 24 25 25 26 27 28 28 29 29 30 30 32 33 35 36 36 37
20 19 19 18 18 18 19 20 20 19 20 22 22 21 21 21 19 19 19 19 20 22 23 23 24 25 26 27 28 28 29 29 30 30 31 31 33 34 35 36 37 37
19 19 19 19 19 19 19 20 20 19 20 22 23 22 21 21 20 20 19 19 21 22 23 24 25 26 28 28 29 30 30 31 31 31 32 32 33 34 36 36 37 38
19 19 20 20 20 19 19 19 19 20 21 22 22 22 22 21 21 21 20 20 21 22 23 24 26 28 29 29 30 31 31 31 31 32 32 32 33 35 36 36 37 38
19 20 20 20 20 19 19 19 19 20 22 23 23 23 22 22 21 22 21 21 22 23 24 25 27 29 29 29 30 31 31 31 31 32 32 32 33 35 36 36 37 38
20 20 21 20 20 20 20 19 20 21 23 24 23 23 23 23 23 23 23 22 22 24 25 26 28 30 29 29 31 32 32 32 32 31 31 31 33 35 36 37 38 38
20 21 21 21 20 20 20 20 21 23 24 25 25 25 25 25 25 24 24 23 23 25 26 26 29 30 29 29 31 32 33 33 33 31 30 31 33 34 36 37 37 38
20 20 21 21 21 21 22 22 23 24 26 27 27 26 26 26 26 25 25 24 25 25 26 28 29 30 29 30 31 32 35 35 32 29 28 30 32 34 36 36 37 37
21 21 22 23 23 23 23 24 25 25 27 28 28 28 27 27 26 26 26 25 26 26 28 29 30 30 30 30 31 32 34 34 31 30 30 32 34 35 35 36 36 36
24 24 24 25 27 27 26 26 26 26 27 29 29 29 28 27 27 27 26 26 26 27 29 30 31 31 30 30 31 32 32 33 33 34 34 34 35 35 35 36 36 36
28 28 29 31 32 31 29 27 27 26 27 29 29 28 28 27 27 26 26 26 27 28 29 30 32 32 31 31 32 32 33 34 35 35 35 35 36 35 35 35 35 35
31 32 32 32 31 31 31 29 27 26 27 28 28 28 28 28 27 26 26 26 27 28 29 30 31 32 32 33 34 35 35 35 36 36 36 36 36 35 35 35 35 35
32 32 31 30 31 33 32 28 25 25 26 27 28 28 28 28 27 26 26 26 27 28 29 30 31 33 34 36 37 37 36 36 36 36 36 36 35 35 34 34 35 35
Wind_Direction
267 270 274 277 280 285 290 294 297 295 293 295 297 296 292 288 284 281 280 278 274 271 271 273 273 270 267 268 271 276 282 288 292 295 299 302 305 307 308 310 313 316
268 271 274 277 281 286 291 294 294 291 291 293 293 291 289 286 282 279 277 274 270 269 271 272 271 268 267 269 272 278 284 289 292 295 299 301 303 305 306 308 312 314
268 271 274 276 280 285 289 290 290 289 290 291 291 289 287 284 280 277 275 272 270 270 270 270 269 266 266 269 274 281 286 290 293 296 298 300 302 304 305 307 310 313
266 270 271 274 278 283 287 288 287 287 288 289 288 286 285 283 280 276 273 271 270 270 270 268 265 264 267 271 276 283 287 290 294 296 297 299 301 303 304 307 309 312
263 266 268 273 278 283 286 286 284 285 285 285 284 284 284 283 280 275 272 270 269 269 268 265 263 265 269 273 278 283 288 291 294 295 296 298 300 302 303 306 309 310
261 264 269 274 278 283 285 285 283 282 281 281 281 283 283 282 278 274 270 270 270 268 266 263 263 267 270 274 280 284 288 291 292 293 296 298 299 300 303 305 308 309
260 264 268 272 276 280 283 283 282 279 277 277 279 280 280 279 278 274 271 270 269 266 264 263 265 268 272 276 280 285 288 290 291 293 296 297 298 300 302 305 306 308
260 264 266 269 273 277 280 281 279 276 275 275 277 278 279 279 278 276 273 270 268 266 265 265 267 269 273 277 281 285 288 288 290 293 295 296 297 300 301 303 305 307
260 262 265 268 272 275 278 279 279 276 274 274 275 278 281 281 279 275 272 270 268 268 267 267 269 271 273 277 280 284 286 288 290 293 294 296 297 299 300 302 304 306
261 261 265 268 272 277 278 278 278 276 273 273 274 278 282 281 279 274 271 270 270 270 270 270 271 271 273 277 280 283 286 288 290 292 294 295 296 297 299 301 303 306
261 261 264 269 273 278 278 278 278 275 273 272 273 277 280 279 277 273 271 271 271 272 271 271 271 272 274 277 280 283 286 288 290 292 293 293 295 296 298 300 303 306
262 262 265 269 275 279 279 279 277 275 273 272 272 276 279 278 276 273 272 272 272 272 271 271 271 272 274 277 281 283 285 287 289 290 291 292 294 296 298 301 303 306
264 263 265 271 277 279 279 279 277 273 270 269 271 274 277 278 277 275 273 272 271 272 271 272 272 273 275 278 280 283 284 286 287 288 290 293 295 297 299 302 304 307
263 263 266 271 276 278 279 279 276 271 266 265 268 272 276 278 279 278 276 273 272 272 272 272 273 273 275 278 280 282 284 285 287 289 291 294 296 299 300 303 306 308
263 263 267 270 273 276 277 277 275 269 264 264 267 272 275 278 278 278 278 276 274 273 273 273 273 273 275 278 280 282 284 286 288 290 293 296 298 300 302 304 306 306
264 264 267 269 271 274 275 275 273 268 263 264 267 272 274 276 277 277 277 275 274 273 273 273 273 274 276 278 280 282 284 286 289 292 295 298 300 302 303 304 305 305
264 264 266 268 270 273 274 274 271 267 264 264 267 270 272 274 275 275 275 274 274 274 274 274 274 275 276 278 281 282 284 287 291 293 296 299 302 302 302 303 304 304
263 264 265 267 269 272 273 273 270 267 265 265 265 267 270 272 273 273 273 273 274 274 274 274 275 275 277 280 282 284 287 290 292 294 297 300 301 301 301 302 303 304
262 264 266 268 270 272 273 272 269 266 265 265 264 265 268 269 270 271 273 273 274 274 275 277 278 278 280 283 285 287 289 291 292 294 297 299 300 299 300 301 302 303
262 264 267 269 271 273 272 270 267 265 265 265 264 264 265 266 268 271 273 274 275 276 278 280 281 282 283 284 286 288 290 291 292 294 297 298 298 298 299 300 301 302
262 265 269 271 273 275 272 268 265 264 264 264 264 264 265 266 268 271 274 275 277 278 280 281 282 284 285 285 286 289 291 292 292 293 297 298 297 297 298 300 301 302
263 268 272 273 275 277 273 267 265 264 263 265 266 266 267 267 270 273 275 277 278 278 279 280 282 285 287 288 290 293 295 296 295 297 299 299 298 298 300 302 303 303
265 270 274 277 279 278 273 267 266 264 263 266 268 269 270 271 272 275 277 279 279 278 278 280 282 284 286 289 292 294 296 297 297 298 299 298 298 300 302 303 303 303
266 270 276 278 276 272 269 267 266 264 263 267 271 272 272 273 273 274 275 276 276 276 278 281 283 284 286 290 292 293 294 294 295 296 297 298 299 301 302 302 302 303
268 272 275 273 269 267 267 267 265 264 264 268 271 271 271 272 272 273 273 274 275 277 280 282 284 287 289 291 292 292 292 292 293 295 296 297 299 300 301 301 301 303
271 274 274 268 267 270 269 264 263 264 265 267 269 269 270 271 272 273 274 275 277 279 282 285 287 289 290 290 290 290 290 290 292 294 295 297 298 299 299 300 300 301
Height
5814 5814 5814 5814 5813 5814 5814 5813 5813 5813 5812 5812 5812 5812 5812 5812 5812 5812 5811 5811 5812 5812 5812 5813 5813 5813 5813 5813 5813 5813 5812 5812 5811 5810 5810 5809 5808 5807 5806 5805 5804 5803
5811 5811 5812 5811 5811 5811 5811 5811 5811 5811 5810 5810 5810 5810 5810 5810 5810 5810 5809 5809 5810 5810 5811 5811 5811 5811 5811 5811 5811 5811 5810 5810 5809 5808 5807 5807 5806 5805 5804 5803 5802 5800
5808 5809 5809 5809 5808 5809 5809 5809 5809 5808 5808 5808 5808 5808 5808 5808 5808 5807 5807 5807 5808 5808 5809 5809 5809 5809 5809 5809 5809 5809 5808 5807 5807 5806 5805 5804 5804 5803 5802 5801 5800 5798
5806 5806 5806 5806 5806 5807 5807 5806 5806 5806 5806 5806 5806 5806 5806 5806 5806 5806 5806 5806 5806 5806 5807 5807 5807 5807 5807 5807 5807 5806 5806 5805 5804 5804 5803 5802 5801 5801 5800 5798 5797 5796
5804 5804 5804 5804 5804 5804 5804 5804 5804 5804 5804 5804 5803 5804 5804 5804 5804 5804 5804 5804 5804 5805 5805 5805 5805 5805 5805 5805 5804 5804 5803 5803 5802 5802 5801 5800 5799 5798 5797 5796 5795 5793
5801 5802 5802 5802 5802 5802 5802 5802 5802 5802 5802 5802 5801 5802 5802 5802 5802 5802 5802 5802 5802 5803 5803 5803 5803 5803 5803 5802 5802 5801 5801 5801 5800 5799 5798 5797 5797 5796 5795 5793 5792 5790
5799 5800 5800 5800 5800 5800 5800 5800 5799 5799 5799 5799 5799 5800 5800 5800 5800 5800 5800 5800 5800 5800 5800 5800 5800 5800 5800 5800 5799 5799 5799 5798 5797 5796 5796 5795 5794 5793 5792 5791 5789 5787
5796 5797 5797 5797 5798 5798 5798 5797 5797 5797 5797 5797 5797 5797 5798 5797 5797 5797 5798 5798 5798 5798 5798 5798 5798 5798 5798 5797 5797 5797 5796 5795 5794 5794 5793 5792 5791 5790 5789 5788 5786 5784
5794 5794 5794 5795 5795 5796 5796 5795 5795 5795 5795 5795 5795 5795 5795 5795 5795 5795 5795 5795 5795 5795 5796 5796 5796 5795 5795 5794 5794 5794 5793 5793 5792 5791 5790 5789 5788 5787 5786 5784 5782 5780
5791 5791 5791 5792 5792 5793 5793 5793 5793 5793 5793 5793 5793 5793 5793 5792 5792 5792 5793 5793 5793 5793 5793 5793 5793 5793 5792 5792 5792 5791 5791 5790 5789 5788 5787 5786 5785 5784 5783 5781 5779 5777
5788 5788 5788 5789 5789 5790 5790 5790 5790 5790 5790 5790 5790 5790 5790 5790 5790 5790 5790 5790 5791 5791 5791 5790 5790 5790 5789 5789 5789 5788 5788 5787 5786 5785 5784 5783 5782 5781 5779 5777 5775 5773
5785 5785 5785 5786 5787 5787 5787 5787 5787 5787 5787 5787 5787 5788 5788 5787 5787 5787 5787 5788 5788 5788 5788 5788 5787 5787 5787 5786 5786 5785 5785 5784 5783 5782 5781 5780 5779 5777 5776 5774 5771 5769
5782 5782 5782 5783 5784 5784 5784 5784 5784 5785 5785 5784 5784 5785 5785 5785 5785 5785 5785 5785 5785 5785 5785 5785 5785 5784 5784 5783 5783 5782 5781 5781 5780 5779 5778 5777 5775 5774 5772 5770 5768 5766
5779 5779 5779 5780 5781 5781 5781 5781 5782 5782 5782 5782 5782 5782 5782 5782 5782 5782 5782 5782 5782 5782 5782 5782 5782 5781 5781 5780 5780 5779 5778 5777 5776 5775 5774 5773 5772 5770 5768 5766 5764 5762
5776 5776 5777 5777 5778 5778 5778 5778 5779 5779 5779 5779 5779 5779 5779 5779 5779 5779 5779 5779 5779 5779 5779 5779 5778 5778 5777 5777 5776 5775 5775 5774 5773 5772 5771 5770 5768 5766 5764 5762 5760 5758
5773 5773 5774 5774 5775 5776 5776 5776 5776 5777 5777 5776 5776 5777 5776 5776 5776 5776 5776 5776 5775 5775 5775 5775 5775 5774 5774 5773 5772 5771 5771 5770 5769 5768 5767 5766 5764 5763 5760 5758 5756 5754
5770 5770 5771 5771 5772 5773 5773 5774 5774 5774 5774 5773 5774 5773 5773 5773 5773 5772 5773 5772 5772 5772 5772 5772 5771 5770 5770 5769 5768 5768 5767 5766 5766 5765 5763 5762 5761 5759 5756 5754 5753 5750
5767 5767 5768 5768 5769 5770 5770 5771 5771 5771 5771 5770 5770 5770 5770 5770 5769 5769 5769 5769 5769 5769 5768 5768 5767 5766 5766 5766 5765 5764 5764 5763 5762 5761 5759 5758 5757 5754 5752 5751 5749 5746
5764 5764 5764 5765 5766 5766 5767 5768 5768 5768 5767 5767 5767 5767 5767 5766 5766 5766 5766 5766 5766 5765 5765 5764 5763 5762 5763 5763 5762 5761 5760 5759 5758 5757 5755 5754 5753 5750 5748 5747 5745 5742
5761 5761 5761 5762 5762 5763 5763 5764 5765 5764 5764 5764 5763 5763 5763 5763 5763 5763 5763 5763 5763 5762 5762 5761 5760 5759 5759 5759 5758 5757 5756 5755 5753 5753 5752 5750 5749 5746 5744 5743 5741 5738
5758 5758 5758 5758 5759 5760 5760 5760 5761 5761 5760 5760 5760 5760 5760 5759 5760 5760 5760 5760 5760 5759 5758 5757 5756 5755 5755 5755 5754 5753 5751 5750 5749 5748 5748 5746 5744 5742 5740 5739 5737 5734
5755 5755 5755 5755 5755 5756 5756 5756 5757 5757 5757 5756 5756 5756 5756 5756 5756 5756 5756 5757 5757 5756 5755 5753 5752 5751 5751 5750 5750 5749 5747 5746 5745 5744 5744 5742 5740 5738 5736 5734 5732 5730
5751 5751 5752 5751 5751 5751 5752 5752 5752 5753 5753 5752 5752 5753 5753 5753 5753 5753 5753 5753 5753 5752 5751 5749 5748 5747 5747 5747 5746 5745 5744 5743 5742 5741 5739 5737 5736 5734 5732 5730 5728 5726
5748 5748 5748 5747 5746 5746 5747 5747 5748 5749 5749 5749 5749 5749 5749 5749 5749 5749 5749 5749 5749 5748 5747 5746 5744 5743 5743 5743 5742 5741 5741 5739 5738 5737 5735 5733 5731 5730 5728 5726 5724 5722
5743 5744 5744 5743 5742 5742 5743 5744 5745 5746 5746 5745 5745 5745 5745 5745 5745 5745 5745 5745 5745 5744 5743 5742 5741 5740 5739 5739 5738 5737 5736 5735 5734 5732 5731 5729 5727 5726 5724 5722 5720 5718
5739 5739 5740 5740 5739 5739 5739 5740 5742 5742 5742 5741 5741 5741 5741 5741 5741 5741 5741 5741 5740 5740 5739 5739 5738 5737 5736 5734 5733 5733 5732 5730 5729 5728 5727 5725 5723 5721 5720 5718 5716 5714